Location: Unspecified
(0.0000°N, 0.0000°E)
Time: 22:20:43
(UTC+01:00)

Meteor PRIRODA - Visible Passes

Search period start: 24 November 2014 00:00
Search period end: 04 December 2014 00:00
Orbit: 506 x 532 km, 97.3° (Epoch: 24 November)

Date Brightness Start Highest point End Pass type
(mag) Time Alt. Az. Time Alt. Az. Time Alt. Az.
24 Nov 4.1 05:59:50 10° N 06:03:22 39° W 06:06:56 10° SSW visible
25 Nov 3.6 05:45:59 10° N 05:49:44 68° W 05:53:31 10° SSW visible
26 Nov 4.0 05:32:19 10° NNE 05:36:05 70° E 05:39:53 10° S visible
27 Nov 5.1 05:18:52 10° NNE 05:22:25 40° ESE 05:26:01 10° S visible
28 Nov 6.1 05:05:39 10° NE 05:08:46 24° ESE 05:11:54 10° SSE visible
29 Nov 6.8 04:52:50 10° ENE 04:55:06 15° ESE 04:57:22 10° SE visible
30 Nov 4.8 06:12:07 10° NNW 06:15:16 25° W 06:18:27 10° SW visible
01 Dec 4.1 05:57:58 10° N 06:01:34 41° W 06:05:11 10° SSW visible
02 Dec 3.6 05:44:04 10° N 05:47:51 72° W 05:51:40 10° SSW visible
03 Dec 4.1 05:30:21 10° NNE 05:34:07 66° E 05:37:55 10° S visible
